DW7875 Weather Reports


Display with metric or nautical units.
time (UTC)temp
F
wind
direction
speed
MPH
gust
MPH
rain 1hr
in
rain 24hr
in
rain mn
in
humidity
%
barometer
mb
20260901023101 79 177 0.0 0.0 0.00 0.01 0.01 82 1017.3
20260901021612 79 177 0.0 2.0 0.00 0.01 0.01 83 1017.4
20260901014559 79 140 0.0 2.0 0.00 0.02 0.01 83 1017.5
20260901014501 79 140 0.0 2.0 0.00 0.02 0.01 83 1017.5
20260901013119 79 139 1.0 2.0 0.00 0.02 0.01 83 1017.4
20260901011558 79 139 0.0 2.0 0.00 0.02 0.01 83 1017.3
20260901010057 79 139 0.0 3.0 0.00 0.02 0.01 82 1017.2
20260901004556 80 129 1.0 5.0 0.00 0.02 0.01 83 1017.2
20260901003057 79 268 0.0 0.0 0.00 0.02 0.01 81 1017.2
20260901001603 80 268 0.0 0.0 0.00 0.02 0.01 81 1017.1
20260901000055 80 268 0.0 0.0 0.00 0.02 0.01 81 1017.0
20260831234557 80 268 0.0 0.0 0.00 0.02 0.01 80 1017.0
20260831233053 81 268 0.0 0.0 0.00 0.02 0.01 80 1017.1
20260831231604 81 21 0.0 0.0 0.00 0.02 0.01 79 1017.2
20260831230056 81 340 0.0 0.0 0.00 0.02 0.01 79 1017.4
20260831224624 81 340 0.0 0.0 0.00 0.02 0.01 79 1017.5
20260831223050 81 340 0.0 1.0 0.00 0.02 0.01 78 1017.6
20260831221555 82 340 0.0 0.0 0.00 0.02 0.01 77 1017.6
20260831220053 82 340 0.0 0.0 0.00 0.02 0.01 76 1017.6
20260831214549 82 340 0.0 0.0 0.00 0.02 0.01 77 1017.6
20260831213048 83 340 0.0 2.0 0.00 0.02 0.01 76 1017.8
20260831211604 83 340 0.0 3.0 0.00 0.02 0.01 76 1017.7
20260831210052 84 340 0.0 3.0 0.00 0.02 0.01 73 1017.4
20260831204546 85 339 0.0 0.0 0.00 0.02 0.01 75 1017.3
20260831203048 85 339 0.0 0.0 0.00 0.02 0.01 73 1017.3
20260831201545 85 339 0.0 0.0 0.00 0.02 0.01 74 1017.4
20260831200044 84 339 0.0 0.0 0.00 0.02 0.01 74 1017.5
20260831194554 84 340 0.0 2.0 0.00 0.02 0.01 75 1017.7
20260831193050 83 340 0.0 1.0 0.00 0.02 0.01 76 1017.9
20260831191549 83 340 0.0 1.0 0.00 0.02 0.01 75 1017.9
20260831190046 84 340 0.0 1.0 0.00 0.02 0.01 74 1018.1
20260831184542 84 340 0.0 3.0 0.00 0.02 0.01 75 1018.2
20260831183043 85 341 0.0 0.0 0.00 0.02 0.01 72 1018.2
20260831181541 86 341 0.0 1.0 0.00 0.02 0.01 72 1018.2
20260831180041 86 341 0.0 0.0 0.00 0.02 0.01 73 1018.3
20260831174541 86 341 0.0 2.0 0.00 0.02 0.01 73 1018.4
20260831173042 85 340 0.0 2.0 0.00 0.02 0.01 74 1018.6
20260831171533 84 329 0.0 4.0 0.00 0.02 0.01 77 1018.8
20260831170032 84 352 1.0 4.0 0.00 0.02 0.01 77 1018.8
20260831164532 83 304 0.0 3.0 0.00 0.02 0.01 77 1018.7
20260831163034 84 354 0.0 3.0 0.00 0.02 0.01 76 1018.9
20260831161533 84 359 0.0 3.0 0.00 0.02 0.01 76 1019.0
20260831160038 84 8 0.0 1.0 0.00 0.02 0.01 76 1018.9
20260831154554 84 9 0.0 2.0 0.00 0.02 0.01 79 1018.9
20260831153028 83 360 0.0 2.0 0.00 0.02 0.01 78 1018.9
20260831151531 84 360 0.0 1.0 0.00 0.02 0.01 78 1018.8
20260831150024 84 360 0.0 0.0 0.00 0.02 0.01 80 1018.6
20260831144521 82 360 0.0 0.0 0.00 0.02 0.01 81 1018.7
20260831143017 81 360 0.0 1.0 0.00 0.02 0.01 86 1018.7
20260831141514 79 360 0.0 1.0 0.00 0.02 0.01 89 1018.7
20260831140009 77 360 0.0 2.0 0.00 0.02 0.01 89 1018.7
20260831134506 76 1 0.0 2.0 0.00 0.02 0.01 89 1018.7
20260831133002 75 1 0.0 2.0 0.00 0.02 0.01 89 1018.8
20260831131502 75 1 1.0 3.0 0.00 0.02 0.01 89 1018.8
20260831130116 75 269 0.0 1.0 0.00 0.02 0.01 89 1018.7
20260831124604 75 269 0.0 2.0 0.00 0.02 0.01 89 1018.8
20260831123059 75 233 0.0 2.0 0.00 0.02 0.01 89 1018.8
20260831121605 74 232 0.0 1.0 0.00 0.02 0.01 89 1018.7
20260831120053 74 232 0.0 2.0 0.00 0.02 0.01 89 1018.5
20260831114553 73 232 0.0 1.0 0.00 0.02 0.01 89 1018.3
20260831113049 72 232 0.0 1.0 0.00 0.02 0.01 89 1018.1
20260831111552 72 232 0.0 0.0 0.00 0.02 0.01 89 1018.1
20260831110047 72 232 0.0 0.0 0.00 0.02 0.01 88 1017.8
20260831104546 72 232 0.0 1.0 0.00 0.02 0.01 88 1017.6
20260831103047 72 232 0.0 1.0 0.00 0.02 0.01 88 1017.7
20260831101552 72 233 0.0 2.0 0.00 0.02 0.01 88 1017.5
20260831094543 73 233 0.0 1.0 0.00 0.02 0.01 88 1017.6
20260831093048 73 233 0.0 1.0 0.01 0.02 0.01 88 1017.4
20260831091544 73 233 0.0 1.0 0.01 0.02 0.01 88 1017.5
20260831090040 73 233 0.0 2.0 0.01 0.02 0.01 88 1017.7
20260831084546 73 233 0.0 0.0 0.01 0.02 0.01 88 1017.6
20260831083040 73 233 0.0 0.0 0.00 0.01 0.00 88 1017.6
20260831081539 73 233 0.0 1.0 0.00 0.01 0.00 88 1017.5
20260831080040 73 233 0.0 1.0 0.00 0.01 0.00 88 1017.7
20260831074538 73 233 0.0 1.0 0.00 0.01 0.00 88 1017.7
20260831073035 73 233 0.0 0.0 0.00 0.01 0.00 88 1017.6
20260831071549 73 233 0.0 0.0 0.00 0.01 0.00 88 1017.5
20260831070033 73 233 0.0 0.0 0.00 0.01 0.00 87 1017.5
20260831064533 74 233 0.0 0.0 0.00 0.01 0.00 88 1017.7
20260831063036 74 233 0.0 1.0 0.00 0.01 0.00 88 1017.8
20260831061530 74 233 0.0 0.0 0.00 0.01 0.00 87 1017.8
20260831060029 74 233 0.0 1.0 0.00 0.01 0.00 87 1017.8
20260831054528 74 233 0.0 0.0 0.00 0.01 0.00 86 1017.8
20260831053043 74 233 0.0 0.0 0.00 0.01 0.00 86 1017.8
20260831051530 74 233 0.0 0.0 0.00 0.01 0.00 86 1017.8
20260831050024 74 233 0.0 0.0 0.00 0.01 0.00 85 1017.9
20260831044522 75 233 0.0 0.0 0.00 0.01 0.00 85 1017.9
20260831043021 75 233 0.0 1.0 0.00 0.01 0.00 85 1018.0
20260831041519 75 233 0.0 0.0 0.00 0.01 0.00 83 1018.0
20260831040016 75 233 0.0 0.0 0.00 0.01 0.00 82 1018.1
20260831034516 76 233 0.0 0.0 0.00 0.01 0.01 82 1018.1
20260831033027 76 233 0.0 1.0 0.00 0.01 0.01 81 1018.1
20260831031513 76 233 0.0 0.0 0.00 0.01 0.01 80 1018.2
20260831030013 77 233 0.0 1.0 0.00 0.01 0.01 79 1018.3
20260831024514 77 233 0.0 4.0 0.00 0.01 0.01 78 1018.2